This demonstration page uses our WeatherBlox Daily Observations layout. Learn more.

38.80484, -77.04692

Hourly Observations for March 15, 2019

Temp ( °F °C ) Dew Point ( °F °C ) Humidity (%) Winds ( mph kmh ) Pressure ( in mb ) Visibility ( mi km ) Precip ( " mm )
12:52 am 00:52 Cloudy 64 17.8 48 8.9 56 56 S 14 22 29.91 1013 10 16.09344 0 0
1:52 am 01:52 Cloudy 62 16.7 48 8.9 60 60 S 17 28 29.88 1012 10 16.09344 0 0
2:52 am 02:52 Cloudy 62 16.7 50 10 65 65 S 16 26 29.88 1012 10 16.09344 0 0
3:52 am 03:52 Cloudy 62 16.7 51 10.6 67 67 S 17 28 29.85 1011 10 16.09344 0 0
4:52 am 04:52 Cloudy 63 17.2 52 11.1 68 68 S 16 26 29.85 1011 10 16.09344 0 0
5:52 am 05:52 Cloudy 64 17.8 53 11.7 68 68 S 14 22 29.85 1011 10 16.09344 0 0
6:52 am 06:52 Cloudy 65 18.3 54 12.2 68 68 SSW 17 28 29.85 1011 10 16.09344 0 0
7:52 am 07:52 Cloudy 65 18.3 54 12.2 68 68 S 17 28 29.85 1011 10 16.09344 0 0
8:52 am 08:52 Cloudy 66 18.9 55 12.8 68 68 SSW 18 30 29.85 1011 10 16.09344 0 0
9:52 am 09:52 Cloudy 68 20 55 12.8 63 63 SSW 18 30 29.85 1011 10 16.09344 0 0
10:52 am 10:52 Cloudy 72 22.2 56 13.3 57 57 SSW 14 22 29.83 1010 10 16.09344 0 0
11:52 am 11:52 Cloudy 73 22.8 57 13.9 57 57 SSW 18 30 29.83 1010 10 16.09344 0 0
12:52 pm 12:52 Cloudy 76 24.4 58 14.4 54 54 SSW 23 37 29.8 1009 10 16.09344 0 0
1:52 pm 13:52 Cloudy 77 25 58 14.4 52 52 S 17 28 29.77 1008 10 16.09344 0 0
2:52 pm 14:52 Cloudy 77 25 58 14.4 52 52 SSW 24 39 29.74 1007 10 16.09344 0 0
3:52 pm 15:52 Mostly Cloudy 76 24.4 59 15 56 56 S 23 37 29.71 1006 10 16.09344 0 0
4:52 pm 16:52 Mostly Cloudy 75 23.9 59 15 58 58 S 26 43 29.71 1006 10 16.09344 0 0
5:52 pm 17:52 Mostly Cloudy 74 23.3 59 15 60 60 SSW 23 37 29.68 1005 10 16.09344 0 0
6:52 pm 18:52 Mostly Cloudy 73 22.8 59 15 62 62 SSW 17 28 29.68 1005 10 16.09344 0 0
7:52 pm 19:52 Mostly Cloudy 71 21.7 59 15 66 66 SSW 16 26 29.71 1006 10 16.09344 0 0
8:52 pm 20:52 Partly Cloudy 70 21.1 59 15 68 68 SSW 13 20 29.74 1007 10 16.09344 0 0
9:40 pm 21:40 Mostly Cloudy 70 21.1 39 3.9 32 32 NW 17 28 29.8 1009 10 16.09344 0 0
9:52 pm 21:52 Mostly Cloudy 70 21.1 36 2.2 29 29 NW 18 30 29.8 1009 10 16.09344 0 0
10:04 pm 22:04 Cloudy with Light Rain 69 20.6 35 1.7 29 29 NW 16 26 29.8 1009 10 16.09344 0.001 0.001
10:14 pm 22:14 Cloudy 68 20 36 2.2 31 31 NW 15 24 29.8 1009 10 16.09344 0.001 0.001
10:52 pm 22:52 Mostly Cloudy 66 18.9 35 1.7 32 32 NW 20 31 29.83 1010 10 16.09344 0.001 0.001
11:52 pm 23:52 Mostly Cloudy 62 16.7 34 1.1 35 35 WNW 17 28 29.85 1011 10 16.09344 0 0

Powered by AerisWeather